Location: ????????
(48.4751°N, 37.6926°E)
Time: 20:29:42
(UTC+00:00)

SL-24 R/B - Pass Details

Date: 20 January 2021
Orbit: 625 x 1075 km, 98.0° (Epoch: 01 March)

Event Time Altitude Azimuth Distance (km) Brightness Sun altitude
Rises 14:56:03 0° 167° (SSE) 2,900 7.6 -7.8°
Reaches altitude 10° 14:58:11 10° 168° (SSE) 2,008 6.8 -8.2°
Maximum altitude 15:02:31 83° 256° (WSW) 665 4.3 -8.8°
Drops below altitude 10° 15:07:11 10° 345° (NNW) 2,161 6.8 -9.5°
Sets 15:09:33 0° 346° (NNW) 3,142 7.6 -9.9°
